Regional Weather Roundup
Issued by NWS

Home | Current Version | Previous Version | Graphics & Text | Print | Product List | Glossary On
Versions: 1 2 3 4 5 6 7 8 9 10 11 12 13 14 15 16 17 18 19 20 21 22 23 24 25 26 27 28 29 30 31 32 33 34 35 36 37 38 39 40 41 42 43 44 45 46 47 48 49 50
576
ASUS45 KBOU 200207
RWRCO

WEATHER ROUNDUP FOR COLORADO
NATIONAL WEATHER SERVICE DENVER/BOULDER CO
800 PM MDT TUE SEP 19 2017

NOTE: "FAIR" INDICATES FEW OR NO CLOUDS BELOW 12000 FEET WITH NO
SIGNIFICANT WEATHER AND/OR OBSTRUCTIONS TO VISIBILITY.

COZ001>005-013-030-031-200300-
...NORTHWEST COLORADO...

CITY           SKY/WX    TMP DP  RH WIND       PRES   REMARKS
CRAIG          LGT RAIN  41  36  82 S3        30.03R
HAYDEN         LGT RAIN  41  34  76 W9        30.04R
MEEKER         FAIR      45  33  63 N14       29.97R
RABBIT EARS PA FOG       30  30 100 NW8G18    30.06R VSB 3/4 WCI  23
STEAMBOAT SPGS CLOUDY    42  32  67 W9        30.00R
WALDEN         CLOUDY    34  28  80 N15       30.01R WCI  24
$$

COZ006>008-011-200300-
...WEST CENTRAL VALLEYS...

CITY           SKY/WX    TMP DP  RH WIND       PRES   REMARKS
GRAND JUNCTION MOCLDY    76  33  21 SW8       29.74S
MONTROSE       FAIR      69  25  19 SW9       29.86R
EAGLE          FAIR      66  27  23 W14       29.86R
RIFLE          MOCLDY    61  35  37 NW20G29   29.81R
DELTA          FAIR      76  23  14 SW6       29.80R
NUCLA          FAIR      72  23  16 SW15G21   29.91R
$$

COZ017>023-064>068-200300-
...SOUTHWEST COLORADO...

CITY           SKY/WX    TMP DP  RH WIND       PRES   REMARKS
DURANGO        FAIR      66  22  18 SW6       29.97R
CORTEZ         FAIR      63  29  27 SW8       29.92R
PAGOSA SPRINGS FAIR      55  24  29 NW3       30.05R
TELLURIDE      FAIR      58  18  21 CALM      30.13R
WOLF CREEK PAS FAIR      41  18  38 S24G32    30.30R
$$

COZ009-010-012-014-032>034-037-058>063-200300-
...CENTRAL COLORADO...

CITY           SKY/WX    TMP DP  RH WIND       PRES   REMARKS
ASPEN          FAIR      63  20  19 W13G30    29.93R
BUENA VISTA    FAIR      62  16  16 W31G41    29.92R
COPPER MTN     FAIR      45  14  29 W14G28    30.18R
BERTHOUD PASS  FAIR      37  30  75 W17G33    30.18R
COTTONWOOD PAS FAIR      57  10  15 W16G29    30.07R
GUNNISON       FAIR      63  21  20 W13G24    29.97R
KREMMLING      FAIR      50  32  50 N9G18     29.94R
LEADVILLE      FAIR      48  16  27 S5        30.04R
MONARCH PASS   FAIR      43  16  33 W44G52    30.28S
SALIDA         FAIR      66  16  14 W6G17     29.98R
SUNLIGHT       CLOUDY    45  23  42 SW12G25   30.12S
WILKERSON PASS FAIR      46  16  29 SW18G29   30.15R
$$

COZ069>075-200300-
...SAN LUIS VALLEY/SANGRE DE CRISTO MOUNTAINS...

CITY           SKY/WX    TMP DP  RH WIND       PRES   REMARKS
ALAMOSA        FAIR      54  23  30 S5        29.99R
DEL NORTE      FAIR      61  19  19 W14       30.00R
LA VETA PASS   FAIR      54  18  24 SW30G45   30.20R
SAGUACHE       FAIR      55  27  33 NW10      29.97R
$$

COZ035-036-038>040-200300-
...NORTHERN COLORADO FRONT RANGE...

CITY           SKY/WX    TMP DP  RH WIND       PRES   REMARKS
DENVER INTL AP FAIR      54  30  40 NE15G28   29.79R
DMNS CITY PARK   N/A     56  31  37 E10G20    29.82R
AURORA         PTCLDY    53  31  42 NE12G17   29.83R
FRONT RANGE AP PTCLDY    55  32  41 NE16G26   29.81R
ERIE MUNI ARPT FAIR      58  30  33 SE9       29.83R
BOULDER MUN AP FAIR      59  32  36 SE9       29.76R
CENTENNIAL     FAIR      56  33  42 NE9       29.84R
BROOMFIELD     PTCLDY    59  32  36 N8        29.81R
FORT COLLINS   FAIR      57  32  38 NE20      29.70R
LONGMONT       FAIR      60  32  35 E10       29.75R
$$

COZ041-046-047-076>085-087-088-200300-
...PIKES PEAK/PALMER DIVIDE AND SOUTHERN FOOTHILLS...

CITY           SKY/WX    TMP DP  RH WIND       PRES   REMARKS
COLO. SPRINGS  FAIR      72  22  15 NW12      29.78R
A. F. ACADEMY  FAIR      71  15  11 W14G25    29.80R
SCHRIEVER AFB  FAIR      67  20  17 N15G25    29.79R
CHEYENNE MTN   NOT AVBL
ELLICOTT         N/A    N/A N/A N/A W10       29.76R
FALCON         FAIR      65  29  26 N18G25    29.85R
FORT CARSON    FAIR      74  17  11 W13       29.74R
LIMON          FAIR      58  36  43 N30G39    29.76R
MONUMENT HILL  FAIR      50  32  50 NE9G25    29.90R
CANON CITY     CLEAR     73  25  16 SW7       29.72R
WALSENBURG     FAIR      73  19  13 W15G23    29.83R
TRINIDAD       FAIR      72  24  16 VRB6      29.81R
$$

COZ042>045-048>051-090-091-200300-
...NORTHEAST COLORADO...

CITY           SKY/WX    TMP DP  RH WIND       PRES   REMARKS
GREELEY ARPT   FAIR      56  32  40 N15       29.74R
AKRON          FAIR      55  30  38 N31G45    29.75R
BURLINGTON     FAIR      66  26  22 W7        29.64R
WRAY           FAIR      64  34  32 N30G41    29.70R
YUMA           FAIR      59  21  23 N25G39    29.74R
STERLING       FAIR      55  32  41 N33G43    29.73R
HOLYOKE        FAIR      63  36  36 NW24G33   29.71R
FORT MORGAN    FAIR      54  27  36 N31G43    29.75R
$$

COZ086-089-092>099-200300-
...SOUTHEAST COLORADO...

CITY           SKY/WX    TMP DP  RH WIND       PRES   REMARKS
PUEBLO         FAIR      79  20  11 SW14      29.67R
LA JUNTA       FAIR      80  24  12 S9        29.64R
LAMAR          FAIR      79  27  14 S15       29.59R
SPRINGFIELD      N/A     69  36  29 S8        29.70R
$$




USA.gov is the U.S. government's official web portal to all federal, state and local government web resources and services.